CAPE
697 666 632 556 466 408 386 449 488 378 314 338 386 332 342 590 808 613 805 935 1210 1155 1052 838 824 694 687 859 781 796 664 795 696 706 805 909 822 834 669 526 455 92 122 101 45 52 82 150 105 152 138 71 211 165 171 193 31 1 21 37 35 17 5
676 742 761 760 522 402 206 450 337 318 440 447 583 482 461 612 756 852 913 1021 934 885 984 810 747 762 601 677 721 775 669 763 735 723 847 922 776 831 553 550 453 468 457 176 161 25 89 92 78 101 108 119 126 60 168 1 10 9 18 41 61 14 30
657 844 851 760 598 142 84 96 130 312 493 252 300 301 538 603 733 773 872 1040 945 1046 820 686 714 710 702 664 887 879 842 786 680 694 787 868 677 626 458 507 580 549 552 436 219 48 48 90 112 98 57 31 38 14 4 1 10 15 8 4 6 1 0
708 824 751 632 377 131 84 111 131 437 219 200 285 312 468 412 474 491 562 600 607 613 662 689 888 910 880 958 1030 901 834 803 777 636 661 688 520 779 661 378 441 452 502 512 350 64 68 79 93 67 6 0 0 3 27 0 3 9 11 2 0 0 0
727 747 740 620 197 159 139 148 228 342 188 161 98 300 266 371 426 430 462 438 332 507 578 582 885 984 1076 1070 1041 993 836 819 687 784 801 738 725 664 542 437 306 377 336 425 346 83 47 56 41 9 0 0 0 3 14 0 0 0 11 1 0 0 0
752 696 654 554 177 145 210 217 508 333 134 93 52 251 282 159 179 300 174 350 325 548 588 639 641 775 942 1079 1038 912 947 828 804 902 764 667 787 784 712 601 574 557 187 283 605 411 230 43 16 4 0 0 0 0 0 0 0 0 0 0 0 0 0
758 659 574 448 137 136 343 476 461 174 118 112 221 128 137 104 97 178 177 233 255 421 458 520 566 697 783 1012 1100 1061 984 878 878 849 740 702 680 751 677 679 577 553 676 223 543 513 230 47 3 0 0 0 0 0 0 0 0 0 0 0 0 0 0
770 598 474 344 112 310 450 401 417 384 123 140 87 126 112 99 108 217 196 160 164 270 400 444 561 619 661 805 903 929 911 940 912 912 879 783 679 714 697 722 834 837 762 491 371 535 323 62 1 0 0 0 0 0 0 0 0 0 0 0 0 0 0
790 594 480 290 386 479 294 121 74 355 78 103 117 134 136 136 244 336 370 293 189 266 289 352 446 557 561 625 687 747 946 904 866 966 930 874 787 741 683 661 659 673 795 771 504 506 499 178 9 0 0 0 0 0 0 3 5 0 0 0 0 0 0
707 592 461 386 510 423 157 161 210 73 32 388 100 106 214 239 243 242 134 172 294 132 120 202 269 350 480 448 495 563 683 822 954 936 920 824 834 783 637 722 666 586 689 730 657 447 444 387 121 0 0 0 0 0 0 0 0 0 0 0 0 0 0
696 585 469 409 582 272 163 466 375 108 124 142 155 262 233 201 203 323 66 313 305 133 135 132 126 337 413 373 361 455 507 648 836 819 886 862 1020 846 795 712 556 507 388 746 556 450 261 349 133 82 0 0 0 0 0 0 0 0 0 0 0 0 0
667 620 526 591 657 411 279 470 345 283 324 177 281 274 266 215 235 195 5 62 131 284 279 56 37 69 246 358 369 372 542 629 659 802 793 907 1077 899 768 645 628 526 734 784 561 444 338 346 19 0 0 0 0 0 0 0 0 0 0 0 0 0 0
671 690 644 716 612 430 277 386 352 365 342 283 273 250 206 205 194 22 0 11 65 70 126 32 14 39 14 27 150 145 368 559 626 618 744 1007 1032 967 852 736 584 669 760 524 349 381 329 193 52 106 50 67 6 0 0 0 0 0 0 0 0 0 0
698 743 718 607 463 313 330 428 391 407 346 302 266 204 223 178 0 0 0 0 11 40 4 8 47 10 10 42 15 3 51 369 371 492 588 768 854 786 862 688 640 738 759 378 332 308 229 175 96 85 56 12 7 0 0 0 0 0 0 0 0 0 0
768 835 778 516 437 468 468 477 393 408 358 285 239 246 72 175 1 0 0 0 0 44 1 30 20 3 14 22 38 18 6 20 21 353 410 499 572 672 868 876 828 829 703 460 342 100 43 17 12 3 0 0 0 3 0 0 0 0 0 0 0 0 0
846 863 699 519 388 506 499 418 382 360 345 288 291 301 100 87 0 0 0 0 0 18 12 13 0 0 0 0 0 0 0 0 0 225 327 378 498 529 709 820 780 703 678 528 267 127 38 44 0 0 0 0 0 0 0 0 0 0 0 0 0 0 0
952 769 607 533 498 573 491 402 368 332 300 287 245 247 168 34 1 0 0 0 0 17 16 0 0 0 0 0 0 0 50 100 7 1 286 434 483 526 619 698 625 605 490 260 102 61 0 0 0 0 0 0 0 0 0 0 0 0 0 0 0 0 0
888 658 608 456 468 529 501 444 390 340 269 207 213 230 179 40 12 0 0 0 0 0 0 0 0 0 0 0 0 8 23 23 0 0 83 360 449 468 551 730 660 519 84 31 72 56 0 0 0 0 0 0 0 0 0 0 0 0 0 0 0 0 0
724 545 518 412 461 414 430 434 364 267 198 167 296 217 94 64 12 0 0 0 0 0 0 0 0 0 0 0 0 0 0 0 0 0 0 1 263 440 452 438 283 12 36 3 1 6 0 0 2 0 0 0 0 0 0 0 0 0 0 0 0 0 0
533 388 300 391 408 400 370 393 412 411 323 266 228 190 157 85 1 0 0 0 0 0 0 0 0 0 0 0 0 0 0 0 0 32 0 0 0 0 4 1 0 0 0 3 0 0 0 0 0 0 0 0 0 0 0 0 0 0 0 0 0 0 0
387 265 297 376 414 394 403 446 389 355 326 235 188 145 127 85 0 0 0 0 0 0 0 0 0 0 0 0 0 0 0 0 58 39 24 0 0 0 0 0 0 0 0 0 0 0 6 6 0 0 0 0 0 17 42 36 9 0 0 0 0 0 0
291 294 240 405 439 359 393 406 354 301 270 215 164 129 0 0 0 0 0 0 0 0 0 0 0 0 0 0 0 0 0 0 2 16 17 0 0 0 0 0 0 0 0 0 0 0 0 0 0 0 0 0 0 0 22 26 92 8 4 2 11 0 0
278 173 201 399 430 401 356 312 302 273 225 141 58 54 0 0 0 0 0 0 0 0 0 0 0 0 0 0 0 0 0 0 0 2 8 6 0 35 0 0 0 0 0 0 0 0 0 0 0 0 0 0 0 0 0 0 2 4 0 0 0 1 2
142 120 272 320 328 317 249 255 236 210 56 3 0 0 0 0 0 0 0 0 0 0 0 0 0 0 0 0 0 0 0 0 0 0 0 0 0 0 0 0 0 0 0 0 0 0 0 0 0 0 0 0 0 0 0 0 0 0 18 25 9 0 0
267 137 201 275 216 227 169 94 31 1 0 0 0 0 0 0 0 0 0 0 0 0 0 0 0 0 0 0 0 0 0 0 0 0 0 0 0 0 0 0 0 0 2 0 0 0 0 0 0 0 0 0 51 0 0 0 0 91 109 57 2 14 8
237 176 142 160 185 162 70 18 3 0 0 0 0 0 0 0 0 0 0 0 0 0 0 0 0 0 0 0 0 0 0 0 0 0 0 0 0 41 71 0 0 23 7 12 35 1 0 0 0 0 0 0 0 0 0 0 0 0 0 0 0 0 0
152 254 216 170 146 116 91 44 0 0 0 0 0 0 0 0 0 0 0 0 0 0 0 0 0 0 0 0 39 81 3 0 0 0 0 1 5 7 1 0 0 0 0 0 0 179 140 147 168 126 136 134 101 0 0 0 0 0 0 0 0 0 90
165 271 215 171 208 198 111 28 0 0 0 0 0 0 0 0 0 0 0 0 0 0 0 0 0 0 0 0 0 0 5 0 0 0 0 10 52 81 7 8 17 81 0 1 138 148 222 205 165 187 191 217 235 201 147 39 1 0 0 0 0 0 0
51 174 142 141 128 208 117 27 0 0 0 0 0 0 0 0 0 0 0 0 0 0 0 0 0 0 0 2 14 11 4 0 0 1 10 2 0 4 8 22 90 47 5 151 267 244 222 230 292 295 313 317 282 214 193 198 199 221 242 226 212 190 127
24 57 51 34 99 115 87 50 15 0 0 0 0 0 0 0 0 0 0 0 0 0 0 0 0 0 0 0 0 1 10 13 0 2 51 53 53 71 91 109 97 92 153 204 200 165 177 176 149 163 258 240 199 169 194 180 154 132 144 144 98 0 0
49 48 36 36 45 32 18 30 1 0 0 0 0 0 0 0 0 0 0 0 0 0 0 0 0 0 0 0 0 0 16 0 0 0 0 0 20 66 114 142 132 110 96 0 20 112 106 92 0 0 0 0 0 0 0 0 0 0 0 0 0 0 0
36 69 59 36 48 58 22 12 0 0 0 3 0 0 0 0 0 0 0 0 0 0 0 0 0 0 0 0 0 0 0 0 0 0 0 0 0 0 0 0 0 0 18 47 0 0 35 0 0 0 0 0 0 0 0 0 0 0 0 0 0 0 0
9 4 5 0 14 34 17 3 1 0 0 0 0 0 0 0 0 0 0 0 2 1 3 5 5 6 3 1 4 7 7 1 0 0 0 0 0 0 0 0 0 4 56 16 0 0 0 0 0 0 0 0 0 0 0 0 0 0 0 0 0 0 0
7 3 9 11 10 6 2 2 2 2 0 0 4 4 2 0 0 1 2 4 2 5 6 4 2 4 2 0 0 0 0 0 0 0 0 0 0 0 0 0 0 0 0 0 0 0 0 0 0 0 0 0 0 0 0 0 0 0 0 0 0 0 0
4 0 6 11 13 12 8 9 12 15 25 29 26 17 11 5 1 0 1 2 0 0 1 0 0 0 0 0 0 0 0 0 0 0 0 0 0 0 0 0 0 0 0 0 0 0 0 0 0 0 0 0 0 0 0 0 0 0 0 0 0 0 0
9 6 9 14 19 16 18 23 23 23 20 18 16 12 9 5 2 0 0 0 0 0 0 0 0 0 0 0 0 0 0 0 0 0 0 2 2 2 0 0 0 0 0 0 0 0 0 0 0 0 0 0 0 0 0 0 0 0 0 0 0 0 0
7 7 7 6 8 12 12 12 8 8 8 5 5 8 6 4 2 5 8 5 6 6 6 2 0 1 3 2 2 0 0 0 0 1 1 0 0 0 0 0 0 0 0 0 0 0 0 0 0 0 0 0 0 0 0 0 0 0 0 0 0 0 0
Wind_Speed
13 15 15 14 14 15 14 10 11 11 10 10 10 10 12 12 13 14 14 13 12 12 10 8 9 8 10 11 11 13 12 13 12 13 10 10 11 9 10 11 11 nan 11 7 nan nan nan 11 9 8 7 nan 5 3 3 3 nan nan nan nan nan nan nan
15 15 15 12 13 13 13 10 10 10 10 12 15 16 15 14 15 16 15 13 12 10 9 12 10 11 12 12 12 14 12 11 12 11 11 9 9 10 12 12 12 11 10 11 10 nan nan nan nan 8 7 5 4 nan 2 nan nan nan nan nan nan nan nan
17 17 15 12 12 13 nan nan 12 14 14 15 17 16 15 15 17 17 16 14 11 11 13 12 13 13 13 12 13 13 13 13 12 12 11 9 10 10 11 11 11 10 12 10 11 nan nan nan 12 nan nan nan nan nan nan nan nan nan nan nan nan nan nan
17 18 17 15 15 16 nan 16 17 18 18 18 18 17 16 16 18 18 18 15 14 15 15 15 15 14 13 13 13 14 13 14 12 12 12 11 11 12 12 12 12 12 12 11 12 nan nan nan nan nan nan nan nan nan nan nan nan nan nan nan nan nan nan
18 16 16 16 16 17 17 18 19 21 22 22 nan 21 18 17 19 20 19 19 18 18 16 15 15 14 13 14 14 13 13 12 12 12 12 12 11 13 12 12 12 12 13 13 12 nan nan nan nan nan nan nan nan nan nan nan nan nan nan nan nan nan nan
19 17 17 16 16 17 18 20 21 22 25 nan nan 21 19 20 21 22 21 20 19 18 16 15 13 13 14 14 13 13 13 12 11 12 12 12 12 13 13 12 13 14 13 13 14 13 13 nan nan nan nan nan nan nan nan nan nan nan nan nan nan nan nan
18 17 17 17 17 17 19 22 23 24 25 22 18 18 19 22 nan 22 21 20 18 18 16 15 14 15 15 15 14 14 12 12 12 11 11 12 12 12 13 15 14 14 13 15 14 15 15 nan nan nan nan nan nan nan nan nan nan nan nan nan nan nan nan
19 17 17 16 17 17 18 22 24 24 23 19 nan 16 19 nan 22 23 21 20 19 19 18 17 16 16 17 17 16 15 14 12 13 12 11 12 12 13 13 15 16 16 15 15 15 14 15 nan nan nan nan nan nan nan nan nan nan nan nan nan nan nan nan
20 19 17 16 15 16 17 19 nan 23 nan 19 16 18 20 22 23 24 23 21 20 19 19 18 16 17 17 18 17 16 15 13 14 13 12 13 13 13 13 15 16 15 14 15 15 15 15 14 nan nan nan nan nan nan nan nan nan nan nan nan nan nan nan
18 17 16 16 14 15 17 17 19 nan nan 21 nan 19 22 24 25 25 24 23 22 21 20 19 17 18 17 18 18 16 15 14 15 13 13 13 12 13 14 14 15 16 14 14 15 16 15 14 13 nan nan nan nan nan nan nan nan nan nan nan nan nan nan
15 15 15 15 15 17 16 16 18 21 23 22 20 21 24 25 25 26 nan 23 21 20 19 19 18 19 18 18 18 17 14 15 16 14 13 14 13 13 14 15 15 17 14 15 14 15 16 14 13 nan nan nan nan nan nan nan nan nan nan nan nan nan nan
12 13 13 15 17 17 16 16 18 21 24 24 23 23 24 26 28 27 nan nan 21 18 19 nan nan nan 18 18 18 18 16 17 17 15 14 15 13 15 14 14 14 15 15 15 14 15 15 15 nan nan nan nan nan nan nan nan nan nan nan nan nan nan nan
13 13 13 16 17 17 16 17 19 22 23 24 25 24 24 27 29 nan nan nan nan nan 20 nan nan nan nan nan 19 19 17 17 17 16 15 15 14 14 15 14 14 15 14 14 14 15 15 14 nan 12 nan nan nan nan nan nan nan nan nan nan nan nan nan
14 13 14 15 18 18 16 17 19 22 25 25 25 24 24 28 nan nan nan nan nan nan nan nan nan nan nan nan nan nan nan 16 16 16 17 16 14 15 14 15 15 14 14 14 13 13 15 15 nan nan nan nan nan nan nan nan nan nan nan nan nan nan nan
17 14 15 14 17 17 16 17 18 23 25 24 25 25 nan 28 nan nan nan nan nan nan nan nan nan nan nan nan nan nan nan nan nan 17 18 16 15 16 16 16 15 14 13 14 13 nan nan nan nan nan nan nan nan nan nan nan nan nan nan nan nan nan nan
19 16 14 13 16 17 16 17 19 23 25 25 26 25 25 nan nan nan nan nan nan nan nan nan nan nan nan nan nan nan nan nan nan 19 19 18 18 17 17 17 15 14 14 13 13 13 nan nan nan nan nan nan nan nan nan nan nan nan nan nan nan nan nan
20 18 14 13 16 16 16 18 20 24 25 25 25 24 25 nan nan nan nan nan nan nan nan nan nan nan nan nan nan nan nan nan nan nan 21 21 21 20 19 18 16 15 14 14 13 nan nan nan nan nan nan nan nan nan nan nan nan nan nan nan nan nan nan
20 18 15 16 15 15 15 18 21 23 24 23 23 24 27 nan nan nan nan nan nan nan nan nan nan nan nan nan nan nan nan nan nan nan nan 21 21 22 21 19 17 18 nan nan nan nan nan nan nan nan nan nan nan nan nan nan nan nan nan nan nan nan nan
19 16 16 16 15 15 14 17 21 23 23 22 23 24 nan nan nan nan nan nan nan nan nan nan nan nan nan nan nan nan nan nan nan nan nan nan 21 21 22 20 20 nan nan nan nan nan nan nan nan nan nan nan nan nan nan nan nan nan nan nan nan nan nan
18 13 13 17 17 15 15 17 20 23 24 23 23 25 26 nan nan nan nan nan nan nan nan nan nan nan nan nan nan nan nan nan nan nan nan nan nan nan nan nan nan nan nan nan nan nan nan nan nan nan nan nan nan nan nan nan nan nan nan nan nan nan nan
19 18 10 15 19 17 17 19 21 24 25 24 23 23 24 nan nan nan nan nan nan nan nan nan nan nan nan nan nan nan nan nan nan nan nan nan nan nan nan nan nan nan nan nan nan nan nan nan nan nan nan nan nan nan nan nan nan nan nan nan nan nan nan
24 18 9 18 20 19 19 21 24 26 25 23 21 22 nan nan nan nan nan nan nan nan nan nan nan nan nan nan nan nan nan nan nan nan nan nan nan nan nan nan nan nan nan nan nan nan nan nan nan nan nan nan nan nan nan nan nan nan nan nan nan nan nan
25 17 12 21 21 20 19 22 26 26 25 23 nan nan nan nan nan nan nan nan nan nan nan nan nan nan nan nan nan nan nan nan nan nan nan nan nan nan nan nan nan nan nan nan nan nan nan nan nan nan nan nan nan nan nan nan nan nan nan nan nan nan nan
26 23 20 22 22 21 20 24 25 25 nan nan nan nan nan nan nan nan nan nan nan nan nan nan nan nan nan nan nan nan nan nan nan nan nan nan nan nan nan nan nan nan nan nan nan nan nan nan nan nan nan nan nan nan nan nan nan nan nan nan nan nan nan
25 25 25 25 22 23 25 nan nan nan nan nan nan nan nan nan nan nan nan nan nan nan nan nan nan nan nan nan nan nan nan nan nan nan nan nan nan nan nan nan nan nan nan nan nan nan nan nan nan nan nan nan nan nan nan nan nan nan 30 nan nan nan nan
22 24 26 24 19 27 nan nan nan nan nan nan nan nan nan nan nan nan nan nan nan nan nan nan nan nan nan nan nan nan nan nan nan nan nan nan nan nan nan nan nan nan nan nan nan nan nan nan nan nan nan nan nan nan nan nan nan nan nan nan nan nan nan
26 26 26 24 22 27 nan nan nan nan nan nan nan nan nan nan nan nan nan nan nan nan nan nan nan nan nan nan nan nan nan nan nan nan nan nan nan nan nan nan nan nan nan nan nan 30 32 33 33 32 32 31 31 nan nan nan nan nan nan nan nan nan nan
27 25 26 26 29 32 31 nan nan nan nan nan nan nan nan nan nan nan nan nan nan nan nan nan nan nan nan nan nan nan nan nan nan nan nan nan nan nan nan nan nan nan nan nan 29 30 32 32 33 33 31 30 30 31 31 nan nan nan nan nan nan nan nan
nan 26 26 28 32 34 32 nan nan nan nan nan nan nan nan nan nan nan nan nan nan nan nan nan nan nan nan nan nan nan nan nan nan nan nan nan nan nan nan nan nan nan nan 37 35 36 35 31 34 32 30 29 29 29 30 29 28 28 29 30 31 31 32
nan nan nan nan nan 32 nan nan nan nan nan nan nan nan nan nan nan nan nan nan nan nan nan nan nan nan nan nan nan nan nan nan nan nan nan nan nan nan nan 39 nan nan 39 39 37 42 40 38 35 34 32 31 29 30 32 31 33 37 36 33 nan nan nan
nan nan nan nan nan nan nan nan nan nan nan nan nan nan nan nan nan nan nan nan nan nan nan nan nan nan nan nan nan nan nan nan nan nan nan nan nan nan 43 47 40 38 nan nan nan 44 42 nan nan nan nan nan nan nan nan nan nan nan nan nan nan nan nan
nan nan nan nan nan nan nan nan nan nan nan nan nan nan nan nan nan nan nan nan nan nan nan nan nan nan nan nan nan nan nan nan nan nan nan nan nan nan nan nan nan nan nan nan nan nan nan nan nan nan nan nan nan nan nan nan nan nan nan nan nan nan nan
nan nan nan nan nan nan nan nan nan nan nan nan nan nan nan nan nan nan nan nan nan nan nan nan nan nan nan nan nan nan nan nan nan nan nan nan nan nan nan nan nan nan nan nan nan nan nan nan nan nan nan nan nan nan nan nan nan nan nan nan nan nan nan
nan nan nan nan nan nan nan nan nan nan nan nan nan nan nan nan nan nan nan nan nan nan nan nan nan nan nan nan nan nan nan nan nan nan nan nan nan nan nan nan nan nan nan nan nan nan nan nan nan nan nan nan nan nan nan nan nan nan nan nan nan nan nan
nan nan nan nan nan nan nan nan nan nan nan nan nan nan nan nan nan nan nan nan nan nan nan nan nan nan nan nan nan nan nan nan nan nan nan nan nan nan nan nan nan nan nan nan nan nan nan nan nan nan nan nan nan nan nan nan nan nan nan nan nan nan nan
nan nan nan nan nan nan nan nan nan nan nan nan nan nan nan nan nan nan nan nan nan nan nan nan nan nan nan nan nan nan nan nan nan nan nan nan nan nan nan nan nan nan nan nan nan nan nan nan nan nan nan nan nan nan nan nan nan nan nan nan nan nan nan
nan nan nan nan nan nan nan nan nan nan nan nan nan nan nan nan nan nan nan nan nan nan nan nan nan nan nan nan nan nan nan nan nan nan nan nan nan nan nan nan nan nan nan nan nan nan nan nan nan nan nan nan nan nan nan nan nan nan nan nan nan nan nan
Wind_Direction
294 297 300 299 283 280 283 282 272 274 270 259 267 285 295 295 287 276 267 259 252 250 239 271 276 288 274 258 260 267 267 276 285 292 292 292 293 277 272 268 270 nan 303 278 nan nan nan 292 277 259 254 nan 259 274 293 313 nan nan nan nan nan nan nan
281 278 286 284 278 275 277 268 263 262 261 259 270 281 284 281 278 272 266 260 257 262 257 253 255 258 264 270 257 261 267 274 281 284 285 297 284 283 272 263 269 277 279 288 288 nan nan nan nan 277 275 251 242 nan 284 nan nan nan nan nan nan nan nan
275 272 274 277 271 275 nan nan 262 256 262 264 263 272 275 275 272 271 267 266 259 259 256 254 252 253 257 255 257 261 269 273 272 281 289 289 283 283 280 287 279 275 273 273 277 nan nan nan 292 nan nan nan nan nan nan nan nan nan nan nan nan nan nan
283 275 270 265 263 265 nan 267 262 257 264 264 263 265 273 270 265 265 261 258 249 254 254 256 255 260 255 251 251 260 266 274 278 280 280 278 282 283 284 290 295 301 302 297 302 nan nan nan nan nan nan nan nan nan nan nan nan nan nan nan nan nan nan
292 284 279 270 262 263 260 262 260 258 260 260 nan 259 267 265 263 260 254 246 243 249 253 251 250 249 245 246 248 256 265 270 276 284 284 284 284 285 286 291 297 294 291 293 300 nan nan nan nan nan nan nan nan nan nan nan nan nan nan nan nan nan nan
288 285 280 272 261 257 253 252 258 259 259 nan nan 254 260 258 257 254 247 243 241 249 251 248 242 240 240 247 250 253 261 271 281 288 291 293 292 288 293 294 294 291 296 295 292 291 284 nan nan nan nan nan nan nan nan nan nan nan nan nan nan nan nan
276 273 270 269 262 253 249 249 255 259 258 252 249 256 260 255 nan 247 243 240 239 246 250 248 242 238 238 243 248 252 258 268 275 284 288 289 288 286 286 288 288 292 292 292 293 287 289 nan nan nan nan nan nan nan nan nan nan nan nan nan nan nan nan
261 257 258 259 259 253 247 248 250 254 251 244 nan 260 254 nan 244 239 240 239 239 243 251 249 246 240 236 237 242 250 252 263 273 274 275 280 282 280 278 283 286 286 288 289 290 287 288 nan nan nan nan nan nan nan nan nan nan nan nan nan nan nan nan
243 244 245 248 248 250 249 250 nan 247 nan 239 253 259 252 246 239 237 238 239 240 244 249 253 249 243 240 243 242 246 252 262 272 274 274 271 276 278 278 278 280 286 287 290 290 289 287 288 nan nan nan nan nan nan nan nan nan nan nan nan nan nan nan
234 239 240 242 241 243 246 249 246 nan nan 240 nan 254 251 246 240 237 239 240 243 245 248 251 249 245 248 248 250 251 259 262 271 276 270 270 270 273 275 279 283 287 287 283 282 289 288 281 287 nan nan nan nan nan nan nan nan nan nan nan nan nan nan
230 236 235 235 232 238 238 242 241 235 231 241 252 253 251 248 240 239 nan 242 246 248 250 249 246 248 252 253 254 256 260 263 267 265 267 268 269 269 271 274 277 283 282 278 284 284 286 286 285 nan nan nan nan nan nan nan nan nan nan nan nan nan nan
236 241 240 236 233 238 236 235 239 233 231 239 251 252 248 243 240 241 nan nan 246 249 248 nan nan nan 251 254 255 260 259 261 262 262 263 266 266 269 271 273 270 274 276 279 280 277 280 279 nan nan nan nan nan nan nan nan nan nan nan nan nan nan nan
254 258 254 246 243 244 238 233 234 232 235 242 252 252 245 241 243 nan nan nan nan nan 244 nan nan nan nan nan 257 262 260 262 264 265 261 262 267 267 268 269 268 269 270 272 271 269 274 274 nan 267 nan nan nan nan nan nan nan nan nan nan nan nan nan
261 266 264 255 249 248 245 240 235 232 236 244 251 248 242 242 nan nan nan nan nan nan nan nan nan nan nan nan nan nan nan 264 268 267 267 264 264 261 262 266 267 268 268 269 267 265 267 266 nan nan nan nan nan nan nan nan nan nan nan nan nan nan nan
259 262 264 252 246 246 249 253 247 236 238 245 246 242 nan 241 nan nan nan nan nan nan nan nan nan nan nan nan nan nan nan nan nan 272 270 271 265 261 259 262 264 267 264 264 260 nan nan nan nan nan nan nan nan nan nan nan nan nan nan nan nan nan nan
259 258 257 239 235 236 245 255 249 238 235 239 239 237 242 nan nan nan nan nan nan nan nan nan nan nan nan nan nan nan nan nan nan 270 270 269 266 262 260 262 267 265 256 257 262 259 nan nan nan nan nan nan nan nan nan nan nan nan nan nan nan nan nan
257 257 254 235 228 230 241 249 245 237 235 236 236 234 242 nan nan nan nan nan nan nan nan nan nan nan nan nan nan nan nan nan nan nan 269 267 268 267 265 266 268 266 267 273 262 nan nan nan nan nan nan nan nan nan nan nan nan nan nan nan nan nan nan
259 259 249 239 231 241 247 246 241 239 241 240 232 236 239 nan nan nan nan nan nan nan nan nan nan nan nan nan nan nan nan nan nan nan nan 269 270 269 267 271 271 270 nan nan nan nan nan nan nan nan nan nan nan nan nan nan nan nan nan nan nan nan nan
252 260 255 246 245 248 245 238 236 236 242 241 235 238 nan nan nan nan nan nan nan nan nan nan nan nan nan nan nan nan nan nan nan nan nan nan 266 266 269 270 270 nan nan nan nan nan nan nan nan nan nan nan nan nan nan nan nan nan nan nan nan nan nan
262 242 244 255 247 248 246 233 236 241 241 238 236 240 242 nan nan nan nan nan nan nan nan nan nan nan nan nan nan nan nan nan nan nan nan nan nan nan nan nan nan nan nan nan nan nan nan nan nan nan nan nan nan nan nan nan nan nan nan nan nan nan nan
265 258 237 256 253 250 246 231 234 238 238 234 237 243 245 nan nan nan nan nan nan nan nan nan nan nan nan nan nan nan nan nan nan nan nan nan nan nan nan nan nan nan nan nan nan nan nan nan nan nan nan nan nan nan nan nan nan nan nan nan nan nan nan
246 246 247 262 251 247 241 231 230 235 234 235 239 243 nan nan nan nan nan nan nan nan nan nan nan nan nan nan nan nan nan nan nan nan nan nan nan nan nan nan nan nan nan nan nan nan nan nan nan nan nan nan nan nan nan nan nan nan nan nan nan nan nan
238 229 250 259 249 243 240 229 226 230 237 242 nan nan nan nan nan nan nan nan nan nan nan nan nan nan nan nan nan nan nan nan nan nan nan nan nan nan nan nan nan nan nan nan nan nan nan nan nan nan nan nan nan nan nan nan nan nan nan nan nan nan nan
244 236 220 241 243 240 237 225 224 228 nan nan nan nan nan nan nan nan nan nan nan nan nan nan nan nan nan nan nan nan nan nan nan nan nan nan nan nan nan nan nan nan nan nan nan nan nan nan nan nan nan nan nan nan nan nan nan nan nan nan nan nan nan
246 242 231 203 229 241 228 nan nan nan nan nan nan nan nan nan nan nan nan nan nan nan nan nan nan nan nan nan nan nan nan nan nan nan nan nan nan nan nan nan nan nan nan nan nan nan nan nan nan nan nan nan nan nan nan nan nan nan 270 nan nan nan nan
242 241 234 226 230 243 nan nan nan nan nan nan nan nan nan nan nan nan nan nan nan nan nan nan nan nan nan nan nan nan nan nan nan nan nan nan nan nan nan nan nan nan nan nan nan nan nan nan nan nan nan nan nan nan nan nan nan nan nan nan nan nan nan
241 242 241 235 233 232 nan nan nan nan nan nan nan nan nan nan nan nan nan nan nan nan nan nan nan nan nan nan nan nan nan nan nan nan nan nan nan nan nan nan nan nan nan nan nan 264 268 271 268 265 261 260 261 nan nan nan nan nan nan nan nan nan nan
240 238 242 237 228 223 228 nan nan nan nan nan nan nan nan nan nan nan nan nan nan nan nan nan nan nan nan nan nan nan nan nan nan nan nan nan nan nan nan nan nan nan nan nan 257 254 260 259 261 261 260 258 258 259 262 nan nan nan nan nan nan nan nan
nan 235 233 233 232 233 235 nan nan nan nan nan nan nan nan nan nan nan nan nan nan nan nan nan nan nan nan nan nan nan nan nan nan nan nan nan nan nan nan nan nan nan nan 261 246 249 259 262 260 261 260 261 260 261 263 263 264 268 273 277 280 282 283
nan nan nan nan nan 241 nan nan nan nan nan nan nan nan nan nan nan nan nan nan nan nan nan nan nan nan nan nan nan nan nan nan nan nan nan nan nan nan nan 260 nan nan 259 257 247 247 250 255 256 255 258 260 262 266 267 266 268 273 275 280 nan nan nan
nan nan nan nan nan nan nan nan nan nan nan nan nan nan nan nan nan nan nan nan nan nan nan nan nan nan nan nan nan nan nan nan nan nan nan nan nan nan 259 259 260 261 nan nan nan 246 246 nan nan nan nan nan nan nan nan nan nan nan nan nan nan nan nan
nan nan nan nan nan nan nan nan nan nan nan nan nan nan nan nan nan nan nan nan nan nan nan nan nan nan nan nan nan nan nan nan nan nan nan nan nan nan nan nan nan nan nan nan nan nan nan nan nan nan nan nan nan nan nan nan nan nan nan nan nan nan nan
nan nan nan nan nan nan nan nan nan nan nan nan nan nan nan nan nan nan nan nan nan nan nan nan nan nan nan nan nan nan nan nan nan nan nan nan nan nan nan nan nan nan nan nan nan nan nan nan nan nan nan nan nan nan nan nan nan nan nan nan nan nan nan
nan nan nan nan nan nan nan nan nan nan nan nan nan nan nan nan nan nan nan nan nan nan nan nan nan nan nan nan nan nan nan nan nan nan nan nan nan nan nan nan nan nan nan nan nan nan nan nan nan nan nan nan nan nan nan nan nan nan nan nan nan nan nan
nan nan nan nan nan nan nan nan nan nan nan nan nan nan nan nan nan nan nan nan nan nan nan nan nan nan nan nan nan nan nan nan nan nan nan nan nan nan nan nan nan nan nan nan nan nan nan nan nan nan nan nan nan nan nan nan nan nan nan nan nan nan nan
nan nan nan nan nan nan nan nan nan nan nan nan nan nan nan nan nan nan nan nan nan nan nan nan nan nan nan nan nan nan nan nan nan nan nan nan nan nan nan nan nan nan nan nan nan nan nan nan nan nan nan nan nan nan nan nan nan nan nan nan nan nan nan
nan nan nan nan nan nan nan nan nan nan nan nan nan nan nan nan nan nan nan nan nan nan nan nan nan nan nan nan nan nan nan nan nan nan nan nan nan nan nan nan nan nan nan nan nan nan nan nan nan nan nan nan nan nan nan nan nan nan nan nan nan nan nan